Wind_Speed
4 3 4 7 9 9 8 8 7 7 8 7 6 6 7 9 10 10 10 9 7 6 5 6 7 7 6 2 5 9 15 19 24 19 20 23 14 12 12 9 14 14 12 14 10
4 4 5 5 6 7 7 6 6 7 9 9 8 8 8 9 10 10 10 9 7 7 7 7 8 7 8 8 1 4 10 15 18 16 14 17 18 20 16 13 17 16 11 4 6
4 3 4 5 6 6 5 5 6 7 9 10 10 9 8 8 8 8 8 8 6 5 5 6 7 7 6 5 5 3 2 6 12 15 14 16 16 15 15 16 16 13 9 10 11
4 4 4 4 4 4 4 5 6 8 9 10 9 9 8 7 6 7 7 7 5 5 3 2 6 7 7 4 4 7 6 7 8 10 14 17 18 19 19 17 15 14 15 18 20
3 3 4 4 4 3 3 3 4 5 6 7 7 7 7 7 7 7 6 6 7 8 6 5 6 7 10 10 10 12 12 12 14 17 19 20 21 20 19 17 12 14 17 21 24
6 4 3 3 4 4 3 3 4 4 6 6 7 6 6 7 6 7 8 6 7 8 8 8 7 9 10 12 14 14 15 18 21 22 22 21 20 17 14 15 17 18 21 24 27
4 5 6 5 4 4 3 3 4 4 5 5 6 6 8 9 9 10 10 10 11 11 10 9 10 10 10 11 10 13 17 21 21 21 21 18 16 13 12 19 20 23 27 28 30
2 3 4 5 7 7 6 6 6 6 6 6 7 8 9 10 11 13 12 12 12 14 13 12 12 12 12 11 12 13 12 14 14 14 15 15 16 11 13 19 22 24 25 27 28
2 2 2 2 4 4 5 6 7 7 9 9 10 11 10 11 11 14 15 15 15 16 16 16 14 15 13 13 14 14 12 11 12 14 17 17 17 16 20 24 23 23 26 29 31
1 1 1 2 3 3 4 5 5 6 7 9 11 12 13 14 15 15 17 17 17 18 18 16 15 16 15 15 16 17 15 15 16 19 20 18 20 21 19 18 22 24 29 32 35
3 3 3 3 2 3 4 5 6 7 8 9 11 13 13 14 15 16 17 19 19 19 18 17 17 17 17 19 18 19 19 19 20 22 22 23 22 20 19 20 25 30 33 35 37
4 4 4 4 4 5 6 6 7 8 8 9 11 14 15 16 16 17 17 19 21 20 21 19 18 18 18 20 21 23 23 22 22 24 25 25 21 20 21 24 28 32 35 37 39
5 6 6 6 7 7 7 8 8 8 10 11 12 13 15 17 18 18 18 19 21 21 19 19 19 18 17 20 22 23 24 23 23 25 25 24 23 22 25 28 31 34 35 37 40
7 8 8 8 8 9 9 9 9 11 12 13 14 15 15 17 18 18 19 19 20 20 20 20 20 20 20 20 21 23 24 24 25 24 24 22 25 26 29 34 37 37 38 40 42
8 9 10 9 10 10 11 10 11 12 13 13 14 14 16 16 17 17 18 20 21 20 20 19 22 22 21 20 23 22 21 23 23 22 23 25 28 30 33 36 38 39 41 42 43
11 11 11 11 12 13 13 13 13 14 15 13 14 14 16 16 17 17 18 19 19 20 21 20 21 21 20 19 20 22 24 24 23 23 25 28 33 35 36 36 38 40 42 42 45
11 11 12 12 12 13 13 14 16 16 14 14 13 15 16 13 11 13 17 17 18 20 24 24 24 21 20 19 20 22 24 26 25 26 28 32 36 34 37 39 38 41 40 43 44
11 12 11 12 12 13 15 16 16 16 15 16 15 16 17 15 14 13 10 11 18 16 20 23 21 22 22 21 20 22 23 25 31 31 33 33 38 39 39 38 40 40 42 41 43
13 12 11 11 12 12 14 16 17 18 19 20 20 20 19 20 17 15 13 10 9 13 16 18 20 19 20 21 22 23 25 28 32 35 39 41 40 41 39 39 40 41 43 44 46
18 17 17 17 17 17 17 19 20 20 21 21 22 22 21 21 22 19 17 16 13 12 11 11 13 16 20 23 25 28 30 31 33 40 43 45 45 42 39 38 42 44 45 48 52
23 22 22 21 21 23 23 24 23 21 22 21 23 23 24 23 23 23 21 20 17 16 16 16 17 18 24 27 30 33 35 36 38 40 43 46 45 40 41 43 43 47 50 53 55
27 25 25 25 24 25 26 26 27 23 21 22 24 24 25 24 25 25 25 24 23 21 20 20 21 22 27 29 32 34 35 37 39 40 41 41 43 41 43 44 46 47 51 53 55
28 27 27 27 27 27 28 27 26 24 21 20 22 23 23 24 26 26 26 27 27 25 24 24 25 26 30 31 31 32 33 35 36 36 35 39 39 41 43 46 48 49 51 53 54
28 28 28 28 29 28 28 28 26 23 20 20 23 24 25 24 26 27 26 27 29 29 28 28 28 30 31 33 33 32 33 34 34 35 38 36 41 42 46 48 50 51 51 52 53
30 29 28 28 28 29 27 27 25 24 22 20 21 23 25 28 28 28 27 28 29 30 31 32 32 33 33 34 33 30 28 29 31 35 39 40 42 43 46 48 48 49 50 51 51
34 33 32 30 30 29 26 25 22 23 22 23 24 24 24 26 28 28 28 29 30 30 30 31 31 31 28 30 29 25 26 28 31 35 36 39 42 44 45 46 47 46 48 50 55
34 37 36 33 33 32 29 29 27 24 22 23 26 27 28 27 27 26 28 31 31 30 29 27 27 26 20 24 25 26 27 31 33 35 38 40 42 42 44 45 45 46 51 54 56
Wind_Direction
185 156 127 174 191 203 212 220 223 208 193 195 210 241 269 276 271 261 256 263 281 305 355 10 27 37 24 311 242 226 229 222 223 242 257 269 293 291 300 297 296 310 305 308 326
184 176 161 152 170 188 197 200 199 199 204 218 234 255 271 272 271 262 252 258 280 308 324 337 347 27 42 43 120 203 222 223 223 235 254 261 272 286 296 300 299 305 310 319 302
169 168 173 183 187 189 197 202 214 223 230 241 251 261 264 267 261 254 253 250 267 281 291 306 313 337 7 28 41 66 211 215 224 234 241 249 257 272 281 285 291 296 281 272 279
150 153 153 154 166 187 202 222 229 236 241 246 249 250 253 251 237 238 233 241 237 211 204 267 281 276 276 278 254 232 232 249 246 246 251 259 261 271 281 286 278 281 295 307 311
167 168 166 164 166 179 192 200 219 225 232 239 241 246 249 247 250 241 228 241 234 223 222 216 229 242 246 244 240 251 253 248 250 252 255 257 263 265 278 278 265 276 289 297 299
216 202 178 178 185 191 195 208 221 235 240 242 242 238 235 235 237 242 217 224 240 253 249 242 237 228 237 229 230 232 243 242 241 244 247 253 260 260 255 250 260 273 285 290 291
205 221 223 216 205 201 206 206 217 225 240 250 254 249 245 243 241 237 242 229 239 242 249 252 259 257 253 252 243 238 242 251 258 254 253 258 253 247 239 252 268 281 289 291 290
157 195 216 218 225 227 222 225 231 237 243 250 259 260 257 257 261 247 243 247 254 255 249 246 251 262 260 257 257 244 250 254 249 254 253 258 259 256 255 268 281 288 291 294 297
108 121 169 193 209 223 234 241 252 257 259 258 258 260 261 264 262 263 256 244 245 252 253 250 248 253 258 256 261 256 248 250 251 256 262 264 269 268 263 272 280 298 303 305 312
120 135 187 194 195 208 216 231 242 252 264 268 271 271 271 268 263 263 265 259 255 254 254 254 251 258 260 259 259 260 246 250 252 258 261 258 251 256 267 282 295 303 308 308 307
281 268 245 245 253 256 257 255 261 266 272 277 281 278 276 276 273 265 262 262 257 254 249 248 251 252 250 254 254 257 257 257 261 271 267 258 261 266 284 299 305 308 307 306 306
278 277 272 272 272 273 277 281 281 283 284 285 283 286 288 281 273 267 261 264 261 259 259 253 249 250 252 256 255 256 257 264 269 266 264 266 269 282 295 301 303 304 307 307 305
271 271 275 278 287 286 286 287 289 291 291 289 294 293 287 281 279 277 274 269 264 260 258 260 257 256 256 259 262 261 266 263 263 267 270 277 283 296 297 297 301 306 306 304 301
264 269 272 279 287 287 284 286 294 295 293 299 302 292 285 281 279 277 272 267 264 260 258 257 256 255 256 263 270 269 269 260 259 263 274 283 292 293 297 302 304 304 305 304 302
261 266 272 277 284 286 290 290 290 295 298 306 303 300 294 285 283 275 269 263 260 261 259 260 261 260 261 266 267 266 259 261 263 270 277 285 289 293 299 302 302 304 304 300 299
262 266 271 276 280 285 288 290 292 293 297 298 295 297 295 288 291 281 265 258 259 258 256 255 258 265 267 261 256 262 263 264 266 272 279 285 288 294 301 303 302 302 299 300 299
266 269 274 279 281 283 287 289 291 292 299 293 291 291 291 290 274 271 278 274 261 262 263 261 262 262 262 257 256 260 261 267 270 276 281 285 287 299 302 304 303 298 298 298 297
267 269 273 278 284 287 288 291 292 294 292 291 290 285 290 294 289 281 273 279 285 277 266 267 262 262 262 266 266 262 268 275 280 281 283 290 294 300 301 299 297 298 299 299 299
271 274 276 276 282 285 291 295 295 290 289 289 287 287 289 294 296 300 295 291 282 261 265 273 274 273 269 267 267 266 270 274 278 283 287 290 297 298 304 302 302 302 302 301 298
268 271 275 278 282 286 291 296 294 287 283 284 285 284 288 290 294 299 301 296 284 273 264 271 275 273 270 268 270 273 275 282 288 291 295 297 299 304 306 305 306 305 302 301 300
268 268 270 275 280 284 289 298 299 291 280 277 277 276 277 278 281 285 285 289 290 281 271 262 260 259 266 271 276 280 284 288 290 292 294 299 302 309 307 307 305 303 303 305 306
266 265 268 272 278 282 287 293 302 298 286 273 273 278 279 277 273 274 279 282 286 285 282 276 274 271 272 272 277 283 287 290 293 294 297 300 304 305 301 303 304 305 304 304 305
263 266 267 271 274 279 284 291 300 302 290 277 278 276 272 271 272 273 274 276 278 278 277 277 279 279 280 282 284 288 291 291 292 295 296 295 301 299 302 303 303 304 306 305 305
265 267 269 271 273 278 283 291 296 297 290 281 279 280 281 275 269 270 271 274 277 278 280 282 283 283 283 285 289 293 296 298 300 298 297 305 303 305 307 306 306 305 305 304 305
260 265 269 272 274 275 279 289 291 295 295 287 280 276 274 273 275 277 276 276 277 280 282 283 284 284 285 287 291 294 293 293 295 299 303 305 306 305 304 304 305 305 304 304 305
258 261 266 270 273 274 279 285 281 284 289 287 286 283 274 270 273 276 279 279 280 280 280 280 281 282 285 285 288 291 295 295 297 300 304 303 304 306 306 305 305 306 304 308 310
260 260 262 264 271 272 277 282 281 280 283 285 283 282 280 278 277 279 285 284 282 282 282 281 280 282 282 278 284 290 293 296 300 304 305 306 306 307 307 309 309 308 309 309 310
Height
5847 5848 5849 5850 5852 5854 5855 5856 5858 5859 5860 5861 5862 5863 5863 5863 5863 5863 5864 5864 5864 5864 5864 5864 5863 5863 5862 5862 5863 5865 5867 5869 5873 5874 5876 5877 5879 5879 5882 5881 5880 5881 5884 5883 5881
5848 5848 5849 5851 5852 5853 5854 5856 5857 5858 5859 5861 5861 5862 5862 5862 5862 5861 5862 5862 5863 5864 5864 5864 5864 5864 5863 5862 5862 5864 5866 5868 5871 5874 5874 5875 5876 5878 5880 5879 5877 5878 5879 5880 5879
5848 5849 5849 5850 5852 5853 5854 5855 5856 5857 5859 5859 5860 5860 5860 5860 5860 5860 5860 5861 5862 5863 5863 5863 5863 5863 5863 5863 5864 5865 5866 5868 5870 5872 5873 5873 5875 5876 5876 5876 5875 5874 5875 5876 5875
5848 5849 5850 5851 5852 5852 5853 5854 5855 5856 5857 5857 5857 5858 5858 5859 5860 5859 5859 5860 5861 5861 5861 5861 5862 5862 5863 5864 5865 5866 5867 5868 5869 5870 5871 5871 5872 5873 5872 5871 5872 5871 5869 5868 5868
5849 5849 5850 5851 5852 5852 5853 5854 5854 5855 5855 5855 5856 5857 5858 5858 5859 5858 5859 5859 5860 5860 5860 5860 5860 5861 5861 5863 5864 5865 5865 5867 5868 5868 5868 5868 5868 5869 5868 5866 5867 5867 5866 5865 5864
5848 5849 5850 5851 5851 5852 5853 5853 5854 5854 5854 5854 5855 5856 5857 5857 5857 5857 5857 5858 5858 5859 5859 5859 5859 5859 5859 5860 5862 5863 5863 5863 5863 5864 5864 5866 5865 5866 5866 5864 5864 5864 5864 5864 5863
5848 5848 5849 5850 5851 5852 5852 5853 5853 5853 5853 5854 5854 5855 5855 5856 5855 5855 5855 5855 5856 5857 5857 5858 5858 5858 5858 5858 5859 5859 5860 5860 5862 5862 5863 5862 5862 5863 5865 5862 5862 5862 5861 5859 5856
5847 5848 5848 5849 5850 5851 5851 5852 5852 5852 5852 5853 5853 5853 5853 5854 5854 5854 5854 5854 5855 5855 5855 5855 5855 5856 5856 5856 5856 5856 5858 5859 5860 5860 5860 5860 5860 5863 5863 5861 5860 5858 5855 5853 5850
5847 5847 5848 5848 5848 5849 5850 5850 5851 5851 5851 5851 5851 5851 5851 5852 5852 5852 5852 5852 5852 5853 5853 5853 5853 5853 5854 5854 5855 5856 5856 5857 5857 5857 5856 5857 5857 5859 5859 5858 5856 5853 5849 5846 5843
5848 5848 5848 5848 5848 5848 5849 5849 5849 5849 5849 5849 5849 5850 5849 5849 5849 5848 5849 5849 5849 5849 5850 5851 5850 5851 5852 5852 5853 5853 5854 5854 5854 5853 5853 5854 5855 5855 5855 5854 5850 5848 5844 5841 5838
5848 5847 5847 5847 5847 5847 5847 5848 5849 5848 5847 5847 5847 5846 5846 5846 5846 5845 5844 5845 5845 5846 5846 5847 5847 5848 5848 5849 5850 5850 5851 5850 5851 5849 5850 5849 5850 5850 5849 5848 5846 5842 5840 5836 5831
5847 5847 5846 5846 5846 5846 5846 5846 5846 5846 5845 5844 5843 5842 5842 5842 5841 5841 5842 5842 5842 5843 5843 5844 5844 5845 5846 5846 5847 5847 5847 5847 5847 5845 5845 5845 5845 5845 5844 5842 5841 5839 5834 5829 5824
5846 5845 5845 5845 5845 5845 5844 5844 5843 5843 5843 5842 5841 5840 5840 5839 5838 5838 5838 5838 5838 5839 5839 5840 5841 5841 5842 5842 5843 5843 5843 5843 5843 5841 5840 5840 5839 5839 5839 5838 5836 5831 5827 5823 5818
5844 5843 5843 5844 5845 5843 5843 5842 5842 5841 5840 5840 5838 5837 5836 5835 5834 5834 5834 5835 5834 5834 5835 5836 5836 5836 5837 5838 5839 5839 5839 5839 5839 5838 5836 5836 5835 5834 5833 5830 5826 5822 5819 5815 5810
5842 5842 5841 5841 5841 5841 5841 5840 5840 5838 5838 5838 5835 5834 5832 5833 5832 5830 5830 5829 5830 5831 5831 5832 5831 5832 5833 5835 5834 5834 5835 5835 5834 5834 5832 5832 5831 5829 5828 5824 5819 5815 5811 5805 5801
5839 5839 5839 5839 5839 5838 5838 5837 5837 5837 5835 5835 5832 5830 5830 5829 5828 5827 5826 5826 5827 5827 5826 5827 5827 5828 5830 5830 5830 5830 5829 5829 5829 5829 5829 5827 5825 5823 5820 5816 5812 5807 5802 5797 5793
5836 5836 5836 5836 5836 5835 5835 5835 5835 5833 5833 5832 5830 5829 5827 5828 5827 5824 5822 5822 5823 5824 5823 5824 5824 5824 5825 5825 5825 5825 5824 5823 5824 5824 5823 5820 5816 5816 5811 5806 5803 5798 5795 5791 5785
5833 5834 5833 5833 5833 5832 5831 5832 5831 5830 5828 5827 5827 5825 5824 5824 5823 5821 5820 5820 5819 5820 5819 5818 5821 5820 5820 5821 5822 5820 5820 5819 5815 5816 5815 5813 5810 5807 5804 5800 5795 5791 5787 5782 5776
5830 5831 5830 5830 5829 5829 5828 5827 5827 5826 5824 5822 5821 5821 5820 5819 5819 5818 5817 5817 5816 5816 5817 5815 5816 5816 5815 5816 5817 5816 5815 5814 5811 5809 5806 5804 5802 5799 5795 5790 5786 5781 5775 5769 5763
5826 5827 5826 5826 5825 5825 5825 5823 5822 5821 5820 5819 5817 5817 5816 5815 5813 5813 5812 5813 5812 5812 5812 5813 5813 5812 5810 5811 5810 5809 5808 5807 5805 5800 5796 5794 5791 5790 5787 5781 5776 5770 5764 5757 5751
5820 5821 5821 5820 5820 5820 5818 5818 5817 5815 5814 5814 5812 5811 5811 5811 5809 5809 5809 5808 5808 5808 5808 5808 5809 5810 5806 5805 5803 5802 5800 5799 5797 5794 5789 5785 5782 5780 5775 5770 5766 5759 5753 5746 5739
5814 5815 5815 5815 5815 5814 5812 5811 5811 5810 5808 5808 5807 5806 5805 5805 5804 5803 5803 5803 5804 5803 5803 5803 5802 5802 5799 5798 5797 5796 5794 5792 5788 5786 5782 5778 5776 5772 5767 5762 5756 5749 5743 5736 5729
5807 5808 5809 5809 5808 5807 5806 5806 5805 5803 5803 5802 5802 5801 5799 5799 5798 5797 5798 5797 5797 5797 5796 5796 5795 5795 5792 5792 5791 5789 5788 5784 5782 5779 5777 5772 5771 5764 5759 5753 5746 5739 5733 5726 5718
5800 5801 5802 5802 5802 5801 5800 5800 5798 5798 5797 5796 5796 5794 5792 5792 5791 5792 5792 5791 5790 5790 5790 5789 5788 5787 5787 5784 5783 5782 5779 5775 5773 5771 5766 5766 5759 5754 5748 5742 5735 5729 5723 5716 5708
5792 5792 5793 5794 5795 5795 5794 5794 5792 5790 5790 5791 5790 5788 5786 5786 5785 5785 5785 5785 5784 5784 5783 5782 5781 5780 5779 5776 5775 5775 5774 5771 5767 5763 5758 5756 5750 5745 5739 5733 5727 5720 5712 5705 5698
5784 5785 5785 5787 5787 5788 5788 5788 5787 5786 5785 5784 5783 5781 5780 5780 5779 5779 5778 5777 5777 5777 5776 5775 5773 5772 5773 5769 5768 5768 5765 5763 5760 5756 5752 5748 5743 5737 5731 5724 5717 5709 5701 5695 5687
5775 5776 5778 5779 5779 5780 5781 5779 5779 5780 5780 5778 5777 5775 5774 5774 5773 5773 5772 5769 5769 5768 5768 5769 5766 5766 5767 5764 5762 5762 5760 5756 5753 5749 5744 5738 5734 5728 5721 5714 5707 5700 5692 5684 5677